Location: Atherton
(17.2661°S, 145.4859°E)
Time: 11:40:26
(UTC+10:00)

Vanguard 1 - Pass Details

Date: 24 June 2025
Orbit: 649 x 3822 km, 34.2° (Epoch: 05 July)

Event Time Altitude Azimuth Distance (km) Brightness Sun altitude
Rises 01:17:39 0° 231° (SW) 3,700 - -75.3°
Reaches altitude 10° 01:21:05 10° 217° (SW) 2,426 - -74.5°
Maximum altitude 01:25:23 24° 162° (SSE) 1,401 - -73.6°
Drops below altitude 10° 01:29:03 10° 105° (ESE) 2,049 - -72.8°
Sets 01:31:40 0° 90° (E) 2,992 - -72.2°
